Location: Gollag?dem
(16.8053°N, 80.8024°E)
Time: 08:10:34
(UTC+00:00)

COSMOS 2406 - Pass Details

Date: 13 August 2020
Orbit: 845 x 862 km, 71.0° (Epoch: 18 September)

Event Time Altitude Azimuth Distance (km) Brightness Sun altitude
Rises 13:34:12 0° 209° (SSW) 3,426 6.5 -8.0°
Reaches altitude 10° 13:36:44 10° 215° (SW) 2,490 5.9 -8.6°
Maximum altitude 13:42:14 48° 288° (WNW) 1,115 4.4 -9.8°
Drops below altitude 10° 13:47:44 10° 2° (N) 2,487 5.9 -11.1°
Sets 13:50:16 0° 8° (N) 3,422 6.5 -11.6°
